Wind_Speed
48 49 50 50 51 52 53 54 54 53 53 54 56 57 59 61 62 64 64 60 60 61 63 64 67 68 65 61 61 57 55 55
52 54 55 55 56 57 58 57 57 56 56 56 58 58 60 63 62 63 64 64 61 57 58 60 62 64 66 67 66 64 60 59
59 59 58 58 59 59 58 57 56 57 58 57 57 59 61 61 60 60 61 63 63 63 62 60 62 64 63 66 68 69 66 64
59 60 59 57 56 56 55 56 56 56 57 57 58 60 61 61 61 62 63 64 61 62 64 64 65 68 69 70 72 73 73 72
56 57 57 56 55 55 54 54 55 56 55 58 60 60 59 60 61 62 62 62 62 63 60 57 55 54 56 58 60 66 72 75
52 53 53 54 53 53 54 55 54 55 57 57 59 58 59 58 62 63 58 54 50 48 47 45 47 49 53 57 57 55 60 65
47 48 49 50 51 52 52 52 53 54 55 55 55 56 56 55 52 52 49 48 43 42 41 46 48 52 54 55 57 61 62 59
42 42 44 46 46 47 48 50 51 50 49 47 47 48 48 44 40 44 45 43 45 43 44 43 48 49 54 57 58 57 62 63
37 39 41 43 44 45 45 45 43 43 40 36 40 42 40 36 37 35 33 34 34 39 39 37 43 44 45 49 56 62 63 63
32 35 36 38 40 41 40 39 37 36 33 34 36 37 37 35 34 29 31 33 32 37 39 42 41 48 49 53 56 63 66 67
30 32 34 35 36 35 35 34 33 33 31 31 32 33 32 32 35 33 32 32 28 32 33 39 40 38 41 36 40 53 68 70
29 32 33 34 34 33 31 30 31 28 29 27 29 28 27 29 31 30 33 32 33 26 26 32 25 33 30 31 32 30 36 53
29 29 29 30 30 28 28 29 26 27 26 29 28 25 22 24 28 30 26 32 26 24 26 36 20 19 15 19 21 10 32 33
27 27 27 28 26 26 27 26 24 24 24 29 27 25 24 23 23 27 25 26 24 27 26 34 14 16 19 16 13 8 17 27
27 31 29 28 26 25 24 24 24 22 20 25 24 24 29 26 25 24 24 23 23 23 25 25 19 18 16 9 7 8 14 13
30 28 28 25 26 26 26 25 24 22 18 20 22 17 18 20 18 19 21 23 22 21 23 25 28 16 13 12 11 6 13 25
26 26 25 24 25 24 23 23 24 22 21 18 17 14 15 16 17 11 6 5 6 10 10 10 5 6 13 19 21 9 18 22
23 25 26 25 25 24 23 24 25 23 22 22 22 20 17 17 17 16 9 5 7 5 5 3 6 4 3 8 16 5 8 22
24 26 27 27 26 26 26 27 28 26 23 25 24 25 24 23 20 18 17 13 10 8 8 6 5 8 10 9 10 8 11 11
Wind_Direction
268 270 272 274 276 277 279 281 283 283 283 284 286 288 288 289 286 285 284 281 277 275 273 271 270 269 268 268 268 269 267 265
272 273 274 275 275 277 279 280 279 279 279 281 284 287 290 289 289 287 284 281 278 274 270 270 267 263 264 264 265 266 265 261
273 273 274 275 275 277 278 278 278 278 281 284 286 288 287 288 287 283 282 280 278 276 273 269 266 263 261 261 261 263 262 259
275 275 276 277 278 279 279 279 280 282 284 284 286 287 288 288 287 285 282 280 279 280 277 273 272 270 266 262 261 261 262 259
278 278 279 279 280 281 281 282 283 282 283 285 287 288 288 287 287 286 288 288 288 287 282 276 270 268 268 266 264 261 260 259
276 277 278 279 280 280 280 280 281 282 284 287 287 288 288 287 286 292 295 291 287 278 273 267 269 267 267 263 260 260 261 260
272 273 274 275 276 277 278 279 281 283 286 288 290 290 292 295 298 297 292 285 284 272 274 274 273 271 269 267 259 256 255 257
272 273 273 274 274 276 277 279 281 285 290 295 295 297 299 299 291 291 289 289 285 271 277 275 272 269 267 264 260 256 253 253
273 273 273 273 273 275 277 281 287 291 296 294 299 296 294 296 293 295 294 292 278 263 281 279 270 269 262 263 259 255 251 248
276 273 273 274 277 281 285 287 291 293 294 298 295 297 296 302 298 296 293 295 286 283 278 282 285 275 267 268 261 255 249 244
277 277 278 281 285 286 287 290 291 295 297 298 302 297 296 299 292 293 291 291 281 289 286 289 294 287 291 282 281 256 243 240
287 285 284 286 289 290 287 288 293 291 294 299 309 302 295 295 282 286 288 284 303 303 304 333 300 292 279 281 263 241 231 229
288 284 289 290 289 287 288 292 288 294 298 310 315 307 298 293 280 277 288 283 290 291 318 337 303 308 296 271 236 254 216 222
272 277 295 295 288 289 290 284 288 292 306 316 319 325 322 321 300 282 286 288 296 310 326 343 289 297 301 315 251 173 170 200
285 282 295 288 283 285 283 283 284 291 305 314 317 326 324 325 322 312 302 308 313 325 339 345 344 288 308 309 137 197 195 193
286 291 294 286 282 283 281 281 282 290 293 304 307 308 317 332 321 317 317 318 311 309 321 328 323 321 284 247 178 244 216 216
288 294 293 284 283 281 279 278 281 287 285 286 285 297 315 312 339 330 324 334 339 316 338 307 15 271 242 217 239 183 189 208
289 290 289 279 278 278 279 277 278 279 277 270 273 277 288 293 308 315 337 357 1 24 60 35 325 356 213 173 186 117 226 189
285 285 283 280 277 274 274 275 274 272 268 268 270 265 273 289 282 293 304 312 322 334 346 9 16 34 30 27 50 44 36 39
Height
5763 5762 5760 5758 5756 5754 5752 5750 5748 5746 5744 5742 5740 5738 5737 5736 5732 5729 5727 5726 5724 5722 5722 5723 5722 5723 5725 5725 5726 5728 5730 5732
5753 5751 5749 5747 5744 5742 5741 5739 5737 5735 5732 5730 5728 5725 5722 5718 5714 5712 5709 5707 5706 5707 5706 5705 5706 5707 5708 5708 5708 5711 5715 5718
5739 5737 5736 5734 5732 5731 5729 5726 5724 5721 5719 5716 5714 5711 5708 5703 5700 5696 5692 5690 5687 5687 5688 5687 5688 5690 5692 5691 5692 5692 5696 5701
5724 5723 5721 5719 5718 5717 5714 5712 5709 5707 5705 5702 5699 5695 5691 5687 5683 5680 5674 5672 5670 5668 5667 5668 5668 5670 5672 5672 5673 5674 5676 5681
5709 5708 5707 5705 5704 5702 5700 5698 5696 5693 5691 5687 5682 5679 5676 5671 5668 5662 5658 5653 5650 5648 5647 5646 5648 5648 5650 5650 5651 5653 5654 5660
5696 5695 5694 5692 5690 5688 5687 5684 5682 5679 5676 5672 5669 5664 5660 5656 5651 5646 5641 5636 5633 5631 5631 5631 5632 5634 5632 5632 5633 5634 5636 5637
5683 5682 5681 5680 5678 5676 5673 5671 5669 5666 5662 5658 5654 5650 5645 5640 5635 5630 5625 5621 5619 5619 5619 5618 5617 5617 5617 5617 5617 5618 5620 5621
5671 5670 5670 5668 5666 5664 5661 5658 5656 5653 5649 5645 5641 5635 5631 5627 5622 5617 5612 5609 5607 5607 5607 5605 5604 5601 5599 5600 5600 5601 5604 5608
5662 5660 5659 5657 5655 5653 5650 5648 5645 5642 5639 5635 5629 5625 5620 5616 5611 5607 5603 5600 5596 5595 5594 5591 5588 5586 5584 5583 5583 5583 5585 5590
5652 5650 5649 5647 5645 5643 5641 5638 5635 5633 5629 5627 5621 5616 5611 5606 5601 5598 5595 5591 5587 5585 5582 5579 5575 5571 5568 5564 5563 5564 5565 5571
5643 5642 5640 5638 5637 5635 5632 5629 5627 5624 5621 5618 5613 5608 5602 5598 5594 5590 5587 5583 5579 5575 5572 5567 5560 5553 5546 5540 5534 5531 5541 5552
5635 5634 5632 5630 5628 5626 5623 5622 5620 5617 5613 5609 5605 5599 5595 5591 5587 5584 5580 5577 5572 5568 5562 5555 5547 5541 5535 5529 5520 5518 5523 5535
5628 5627 5625 5623 5620 5618 5616 5614 5612 5610 5606 5602 5596 5593 5589 5584 5581 5578 5574 5570 5567 5564 5555 5547 5539 5534 5531 5522 5518 5517 5520 5532
5621 5619 5617 5615 5613 5611 5609 5608 5606 5603 5600 5596 5591 5588 5583 5579 5575 5571 5568 5563 5559 5554 5549 5540 5535 5533 5528 5523 5517 5517 5522 5525
5613 5612 5609 5607 5606 5605 5604 5602 5600 5597 5594 5592 5588 5583 5580 5575 5571 5566 5562 5558 5554 5550 5546 5538 5535 5530 5528 5526 5522 5522 5525 5528
5606 5604 5602 5601 5600 5598 5597 5595 5594 5591 5589 5588 5585 5581 5578 5573 5568 5564 5559 5555 5552 5548 5545 5540 5536 5530 5526 5527 5525 5525 5525 5527
5599 5597 5595 5595 5593 5592 5590 5589 5587 5585 5584 5583 5582 5579 5575 5571 5568 5562 5558 5554 5551 5548 5544 5542 5537 5533 5529 5527 5526 5527 5528 5527
5593 5591 5590 5588 5587 5585 5583 5582 5581 5579 5578 5577 5576 5574 5571 5569 5566 5563 5559 5554 5550 5547 5545 5542 5539 5537 5534 5529 5526 5527 5528 5528
5587 5586 5584 5582 5580 5578 5576 5575 5573 5571 5570 5570 5569 5567 5566 5563 5562 5560 5557 5554 5551 5547 5545 5542 5539 5537 5533 5529 5527 5527 5528 5526